"Pseudo-MPEC" for RdSH235

Created 2023 Dec 9 16:22:32 UT using Find_Orb

Click here for an explanation of pseudo-MPECs

 
 Astrometry: 
     RdSH235*KB2023 11 18-b0JH8=o]8kC7orDAstrometry_I6d[':=UT%redacted;P-uMn7Y89
     RdSH235 KB2023 11 187r`click)j/g(Uhereds$]c`.'AjA^yucP\8WQPH#jRmSsP.]I3tY89
     RdSH235 KB2023 11 18AP[*XVtS;MOX#eK4!7tEforCgx=aSAexplanationNN$cF6?tj4HY89

Station data:
(Y89) Proxima Centauri Observatory, Valdin  (N42.222443 W6.988110)  Spain.

Orbital elements:  RdSH235
   Perihelion 2024 Jul 26.45873 +/- 266 TT = 11:00:34 (JD 2460517.95873)
Epoch 2023 Nov 19.0 TT = JDT 2460267.5   Earth MOID: 0.2424   Ve: 0.0315
M 254.19576395 +/- 90               (J2000 ecliptic)             AutoNEOCP
n   0.42244179 +/- 0.262            Peri.  177.19666 +/- 57
a   1.75910377 +/- 0.727            Node    25.27587 +/- 37
e   0.5732967 +/- 0.251             Incl.   16.26951 +/- 51
P   2.33/852.17d           H 17.53  G  0.15   U 11.9  SR
q 0.75061537 +/- 0.92    Q 2.76759217 +/- 26.8
From 3 observations 2023 Nov. 18 (42.7 min); mean residual 0".61
Residuals in arcseconds: 
231118 Y89  .59+  .15-    231118 Y89  1.2-  .29+    231118 Y89  .59+  .15-    

Ephemerides (geocentric):
Date (UTC) HH   RA             Dec           delta  r     elong  mag " sig PA
---- --------  ------------   ------------  ------ ------ -----  --- --------
2023 12 09 16  01 58 04.790   +24 36 42.58  1.5012 2.3264 137.7 21.1  27d 110
2023 12 09 17  01 58 01.978   +24 36 30.48  1.5014 2.3263 137.7 21.1  27d 110
2023 12 09 18  01 57 59.170   +24 36 18.39  1.5016 2.3261 137.6 21.1  27d 110
2023 12 09 19  01 57 56.367   +24 36 06.31  1.5018 2.3259 137.6 21.1  27d 110
2023 12 09 20  01 57 53.568   +24 35 54.23  1.5020 2.3257 137.5 21.1  27d 110
2023 12 09 21  01 57 50.773   +24 35 42.16  1.5022 2.3255 137.5 21.1  27d 110
2023 12 09 22  01 57 47.982   +24 35 30.10  1.5024 2.3253 137.4 21.1  27d 110
2023 12 09 23  01 57 45.196   +24 35 18.04  1.5026 2.3251 137.4 21.1  27d 110
2023 12 10 00  01 57 42.413   +24 35 05.99  1.5028 2.3249 137.3 21.1  27d 110
2023 12 10 01  01 57 39.635   +24 34 53.94  1.5030 2.3247 137.3 21.1  27d 110
2023 12 10 02  01 57 36.861   +24 34 41.90  1.5032 2.3245 137.2 21.1  27d 110
2023 12 10 03  01 57 34.092   +24 34 29.87  1.5034 2.3243 137.2 21.1  27d 110
2023 12 10 04  01 57 31.326   +24 34 17.84  1.5036 2.3241 137.1 21.1  27d 110
2023 12 10 05  01 57 28.565   +24 34 05.82  1.5039 2.3239 137.1 21.1  27d 110
2023 12 10 06  01 57 25.808   +24 33 53.80  1.5041 2.3237 137.0 21.1  27d 110
2023 12 10 07  01 57 23.055   +24 33 41.79  1.5043 2.3235 137.0 21.1  27d 110
2023 12 10 08  01 57 20.307   +24 33 29.79  1.5045 2.3233 136.9 21.1  27d 110
2023 12 10 09  01 57 17.562   +24 33 17.80  1.5047 2.3232 136.9 21.1  27d 110
2023 12 10 10  01 57 14.822   +24 33 05.81  1.5049 2.3230 136.8 21.1  27d 110
2023 12 10 11  01 57 12.087   +24 32 53.82  1.5051 2.3228 136.8 21.1  27d 110
2023 12 10 12  01 57 09.355   +24 32 41.85  1.5053 2.3226 136.7 21.1  27d 110
2023 12 10 13  01 57 06.628   +24 32 29.88  1.5055 2.3224 136.7 21.1  27d 110
2023 12 10 14  01 57 03.905   +24 32 17.91  1.5057 2.3222 136.6 21.1  27d 110
2023 12 10 15  01 57 01.186   +24 32 05.96  1.5059 2.3220 136.6 21.1  27d 110
2023 12 10 16  01 56 58.471   +24 31 54.01  1.5062 2.3218 136.5 21.2  27d 110
2023 12 10 17  01 56 55.761   +24 31 42.06  1.5064 2.3216 136.5 21.2  27d 110
2023 12 10 18  01 56 53.055   +24 31 30.13  1.5066 2.3214 136.4 21.2  27d 110
2023 12 10 19  01 56 50.353   +24 31 18.20  1.5068 2.3212 136.4 21.2  27d 110
2023 12 10 20  01 56 47.656   +24 31 06.28  1.5070 2.3210 136.3 21.2  27d 110
2023 12 10 21  01 56 44.963   +24 30 54.36  1.5072 2.3208 136.3 21.2  27d 110
2023 12 10 22  01 56 42.274   +24 30 42.45  1.5074 2.3206 136.2 21.2  27d 110
2023 12 10 23  01 56 39.589   +24 30 30.55  1.5076 2.3204 136.2 21.2  27d 110
2023 12 11 00  01 56 36.909   +24 30 18.66  1.5079 2.3202 136.1 21.2  27d 109
2023 12 11 01  01 56 34.232   +24 30 06.77  1.5081 2.3200 136.0 21.2  27d 109
2023 12 11 02  01 56 31.561   +24 29 54.89  1.5083 2.3198 136.0 21.2  27d 109
2023 12 11 03  01 56 28.893   +24 29 43.01  1.5085 2.3196 135.9 21.2  27d 109
2023 12 11 04  01 56 26.230   +24 29 31.15  1.5087 2.3194 135.9 21.2  27d 109
2023 12 11 05  01 56 23.571   +24 29 19.29  1.5089 2.3193 135.8 21.2  27d 109
2023 12 11 06  01 56 20.916   +24 29 07.44  1.5091 2.3191 135.8 21.2  27d 109
2023 12 11 07  01 56 18.265   +24 28 55.59  1.5094 2.3189 135.7 21.2  27d 109
2023 12 11 08  01 56 15.619   +24 28 43.76  1.5096 2.3187 135.7 21.2  27d 109
2023 12 11 09  01 56 12.977   +24 28 31.93  1.5098 2.3185 135.6 21.2  27d 109
2023 12 11 10  01 56 10.340   +24 28 20.10  1.5100 2.3183 135.6 21.2  27d 109
2023 12 11 11  01 56 07.706   +24 28 08.29  1.5102 2.3181 135.5 21.2  27d 109
2023 12 11 12  01 56 05.077   +24 27 56.48  1.5104 2.3179 135.5 21.2  27d 109
2023 12 11 13  01 56 02.453   +24 27 44.68  1.5107 2.3177 135.4 21.2  27d 109
2023 12 11 14  01 55 59.832   +24 27 32.89  1.5109 2.3175 135.4 21.2  27d 109
2023 12 11 15  01 55 57.216   +24 27 21.10  1.5111 2.3173 135.3 21.2  27d 109